Tracking 19242 objects as of 15-Aug-2018
HD Live streaming from Space Station
objects crossing your sky now

COSMOS 2303

Track COSMOS 2303 now!
10-day predictions
COSMOS 2303 is classified as:


NORAD ID: 23445
Int'l Code: 1994-086E
Perigee: 1,419.5 km
Apogee: 1,436.6 km
Inclination: 82.6 °
Period: 114.2 minutes
Semi major axis: 7799 km
RCS: 1.1077 m2 (large)
Launch date: December 26, 1994
Source: Commonwealth of Independent States (former USSR) (CIS)
Launch site: PLESETSK MISSILE AND SPACE COMPLEX (PKMTR)
aabbcc
Your satellite tracking list
Your tracking list is empty




NASA's NSSDC Master Catalog

Two Line Element Set (TLE):
1 23445U 94086E   18226.92362277 +.00000002 +00000-0 -46687-4 0  9990
2 23445 082.5762 007.8203 0010983 189.6629 285.8572 12.60486269087244
Source of the keplerian elements: AFSPC